Observations for Trim Patrick St
| Time | AQI | Temp °C | Hum % | Pres Pa | CO μg/m³ | H₂S μg/m³ | NO μg/m³ | NO₂ μg/m³ | O₃ μg/m³ | SO₂ μg/m³ | PM1 μg/m³ | PM2.5 μg/m³ | PM10 μg/m³ |
|---|---|---|---|---|---|---|---|---|---|---|---|---|---|
| Tuesday 4 August 2026 | |||||||||||||
| 01:18 | 2 | 16.9 | 84 | 38,460 | 0.12 | 0 | 0.87 | 22.44 | 17.43 | 0 | 8.86 | 11.88 | 13.06 |
| 01:17 | 2 | 16.9 | 84 | 38,460 | 0.12 | 0 | 0.97 | 23.2 | 5.04 | 0 | 8 | 11.87 | 13.05 |
| 01:16 | 2 | 16.9 | 84 | 38,460 | 0.12 | 0.76 | 0.96 | 24.74 | 23.8 | 0 | 8.86 | 12.56 | 13.81 |
| 01:15 | 2 | 16.9 | 84 | 38,460 | 0.13 | 0 | 0.98 | 25.73 | 6.54 | 0 | 9.71 | 13.94 | 15.34 |
| 01:14 | 2 | 16.9 | 84 | 38,460 | 0.13 | 0 | 1.26 | 22 | 8.39 | 0 | 8 | 12.56 | 13.81 |
| 01:13 | 2 | 16.9 | 84 | 38,460 | 0.12 | 0 | 0.96 | 25 | 9.84 | 0 | 9.71 | 13.25 | 14.58 |
| 01:12 | 2 | 16.9 | 84 | 38,460 | 0.13 | 0 | 0.96 | 24.24 | 7.76 | 0 | 8.86 | 12.55 | 13.81 |
| 01:10 | 2 | 16.9 | 84 | 38,460 | 0.14 | 0.84 | 1.15 | 26.21 | 19.72 | 0 | 8 | 12.56 | 13.81 |
| 01:09 | 2 | 16.9 | 84 | 38,460 | 0.14 | 2.2 | 1.03 | 29.2 | 15.84 | 0 | 8.86 | 13.23 | 14.56 |
| 01:08 | 2 | 17 | 84 | 38,460 | 0.15 | 1.15 | 1.11 | 26.47 | 10.34 | 0 | 9.71 | 11.84 | 13.03 |
| 01:07 | 2 | 17 | 84 | 38,460 | 0.15 | 1.21 | 1.16 | 28.68 | 12.33 | 0 | 9.71 | 13.22 | 14.55 |
| 01:06 | 2 | 17 | 84 | 38,460 | 0.14 | 0 | 1.24 | 19.01 | 10.52 | 0 | 9.71 | 14.6 | 16.05 |
| 01:05 | 2 | 17 | 84 | 38,460 | 0.14 | 0 | 1.15 | 21.93 | 3.46 | 0 | 10.57 | 13.9 | 15.3 |
| 01:04 | 2 | 17 | 85 | 38,460 | 0.16 | 0.24 | 1.08 | 21.31 | 4.97 | 0 | 8.86 | 14.59 | 16.04 |
| 01:03 | 2 | 17 | 85 | 38,460 | 0.14 | 2.51 | 1.09 | 27.27 | 13.88 | 0 | 8.86 | 12.51 | 13.77 |
| 01:02 | 2 | 17 | 84 | 38,460 | 0.15 | 2.15 | 1.16 | 24.9 | 12.83 | 0 | 10.57 | 15.29 | 16.81 |
| 01:01 | 2 | 17 | 85 | 38,460 | 0.16 | 2.3 | 1.09 | 26.25 | 5.85 | 0 | 10.57 | 14.59 | 16.04 |
| 00:57 | 2 | 17 | 85 | 38,460 | 0.17 | 0.29 | 1.24 | 17.68 | 0.92 | 0 | 11.43 | 15.27 | 16.79 |
| 00:56 | 2 | 17.1 | 85 | 38,460 | 0.16 | 3.03 | 1.2 | 26.32 | 10.55 | 0 | 13.14 | 18.04 | 19.84 |
| 00:55 | 2 | 17 | 85 | 38,460 | 0.17 | 1.99 | 1.12 | 27.56 | 10.35 | 0 | 14 | 18.72 | 20.59 |